Simultaneous Nadir Overpasses (SNOs) Predictions

Prediction of SNOs between GOES-16 and AQUA Satellite Orbit:

Table of predicted SNOs for the next 14.0 days since TLE Epoch: 6/2/2017
Index Date Time (GOES-16) GOES-16 Lat,Lon AQUA Lat,Lon Distance(km) Time Diff (sec)
1 06/02/2017 19:18:46 0.00, -89.45 0.84, -85.62 436.04 80
2 06/03/2017 07:40:01 -0.00, -89.47 0.27, -90.77 148.44 80
3 06/05/2017 07:25:09 -0.00, -89.46 -0.36, -87.82 186.94 80
4 06/05/2017 19:46:33 0.00, -89.44 -0.77, -93.00 405.86 80
5 06/07/2017 19:34:21 0.00, -89.43 -0.14, -90.05 70.10 80
6 06/09/2017 19:24:49 0.00, -89.43 0.50, -87.09 265.87 80
7 06/10/2017 07:46:04 -0.00, -89.45 0.59, -92.24 318.08 80
8 06/12/2017 07:31:12 -0.01, -89.45 -0.05, -89.29 18.08 80
9 06/14/2017 07:19:00 -0.01, -89.45 -0.69, -86.33 354.51 80
10 06/14/2017 19:40:24 0.02, -89.43 -0.43, -91.52 238.23 80




NCC Satellite Simultaneous Nadir Overpasses (SNOs) Prediction Service
